Weather History for Algona, IA

Change the Weather History Date:

Monday, February 11, 2013

  Actual Average Record
Temperature  
Mean Temperature 24 °F -  
Max Temperature 28 °F 28 °F 50 °F (1999)
Min Temperature 19 °F 13 °F -16 °F (2014)
Degree Days  
Heating Degree Days 42    
Moisture  
Dew Point 20 °F    
Average Humidity 82    
Maximum Humidity 100    
Minimum Humidity 69    
Precipitation  
Precipitation 0.00 in - - ()
Sea Level Pressure  
Sea Level Pressure 29.87 in    
Wind  
Wind Speed 24 mph (WNW)    
Max Wind Speed 34 mph    
Max Gust Speed 46 mph    
Visibility 8 miles    
Events Snow    
Averages and records for this station are not official NWS values.
T = Trace of Precipitation, MM = Missing Value Source: NWS Daily Summary

Daily Weather History Graph

Daily Weather History Graph

Search for Another Location

Airport:

Trip Planner

Search our weather history database for the weather conditions in past years. The results will help you decide how hot, cold, wet, or windy it might be!

Date:

Astronomy

Feb. 11, 2013 Rise Set
Actual Time 7:19 AM CST 5:43 PM CST
Civil Twilight 6:50 AM CST 6:12 PM CST
Nautical Twilight 6:17 AM CST 6:46 PM CST
Astronomical Twilight 5:44 AM CST 7:19 PM CST
Moon 7:40 AM CST (2/11) 7:45 PM CST (2/11)
Length of Visible Light 11h 22m
Length of Day
10h 23m
Waxing Crescent, 3% of the Moon is Illuminated
Feb 11
Waxing Crescent
Feb 17
First Quarter
Feb 25
Full
Mar 4
Last Quarter
Mar 11
New

Hourly Weather History & Observations

Time (CST) Temp. Windchill Dew Point Humidity Pressure Visibility Wind Dir Wind Speed Gust Speed Precip Events Conditions
12:15 AM 28.4 °F 13.5 °F 28.4 °F 100% 29.48 in 1.8 mi WNW 26.5 mph 32.2 mph N/A   Overcast
12:35 AM 28.4 °F 13.3 °F 26.6 °F 93% 29.49 in 1.8 mi WNW 27.6 mph - N/A   Overcast
12:55 AM 28.4 °F 13.8 °F 26.6 °F 93% 29.51 in 2.0 mi WNW 25.3 mph 34.5 mph N/A   Overcast
1:15 AM 28.4 °F 14.1 °F 26.6 °F 93% 29.52 in 3.0 mi WNW 24.2 mph 33.4 mph N/A Snow Light Snow
1:35 AM 28.4 °F 13.0 °F 26.6 °F 93% 29.53 in 2.5 mi WNW 28.8 mph 35.7 mph N/A   Overcast
1:55 AM 28.4 °F 13.5 °F 26.6 °F 93% 29.55 in 3.0 mi WNW 26.5 mph 35.7 mph N/A Snow Light Snow
2:15 AM 28.4 °F 13.8 °F 26.6 °F 93% 29.56 in 0.8 mi WNW 25.3 mph 36.8 mph N/A   Overcast
2:35 AM 28.4 °F 13.8 °F 26.6 °F 93% 29.58 in 0.8 mi WNW 25.3 mph 36.8 mph N/A Snow Light Snow
2:55 AM 28.4 °F 12.5 °F 26.6 °F 93% 29.59 in 1.2 mi WNW 31.1 mph 40.3 mph N/A   Overcast
3:15 AM 28.4 °F 14.1 °F 26.6 °F 93% 29.60 in 0.8 mi WNW 24.2 mph 38.0 mph N/A   Overcast
3:35 AM 26.6 °F 11.7 °F 24.8 °F 93% 29.62 in 2.0 mi WNW 24.2 mph 34.5 mph N/A   Overcast
3:55 AM 26.6 °F 11.4 °F 24.8 °F 93% 29.63 in 1.8 mi WNW 25.3 mph 33.4 mph N/A   Overcast
4:15 AM 26.6 °F 11.4 °F 24.8 °F 93% 29.65 in 3.0 mi NW 25.3 mph 35.7 mph N/A Snow Light Snow
4:35 AM 28.4 °F 13.8 °F 24.8 °F 86% 29.66 in 5.0 mi WNW 25.3 mph 35.7 mph N/A Snow Light Snow
4:55 AM 26.6 °F 9.3 °F 23.0 °F 86% 29.68 in 4.0 mi NW 34.5 mph 46.0 mph N/A Snow Light Snow
5:15 AM 26.6 °F 9.3 °F 23.0 °F 86% 29.69 in 6.0 mi NW 34.5 mph 42.6 mph N/A Snow Light Snow
5:35 AM 26.6 °F 11.4 °F 23.0 °F 86% 29.71 in 6.0 mi NW 25.3 mph 40.3 mph N/A Snow Light Snow
5:55 AM 26.6 °F 10.0 °F 21.2 °F 80% 29.72 in 10.0 mi NW 31.1 mph 42.6 mph N/A Snow Light Snow
6:15 AM 26.6 °F 10.8 °F 21.2 °F 80% 29.74 in 8.0 mi NW 27.6 mph 40.3 mph N/A Snow Light Snow
6:35 AM 24.8 °F 8.1 °F 21.2 °F 86% 29.75 in 8.0 mi NW 28.8 mph 39.1 mph N/A Snow Light Snow
6:55 AM 24.8 °F 10.7 °F 21.2 °F 86% 29.77 in 10.0 mi WNW 19.6 mph 35.7 mph N/A Snow Light Snow
7:15 AM 24.8 °F 9.3 °F 21.2 °F 86% 29.79 in 10.0 mi WNW 24.2 mph 35.7 mph N/A Snow Light Snow
7:35 AM 24.8 °F 9.0 °F 21.2 °F 86% 29.81 in 7.0 mi WNW 25.3 mph 38.0 mph N/A Snow Light Snow
7:55 AM 24.8 °F 8.7 °F 19.4 °F 80% 29.82 in 9.0 mi WNW 26.5 mph 38.0 mph N/A Snow Light Snow
8:15 AM 24.8 °F 9.6 °F 19.4 °F 80% 29.84 in 8.0 mi WNW 23.0 mph 33.4 mph N/A   Overcast
8:35 AM 24.8 °F 10.0 °F 19.4 °F 80% 29.85 in 10.0 mi WNW 21.9 mph 36.8 mph N/A Snow Light Snow
8:55 AM 24.8 °F 9.3 °F 19.4 °F 80% 29.86 in 10.0 mi WNW 24.2 mph 36.8 mph N/A Snow Light Snow
9:15 AM 24.8 °F 8.1 °F 19.4 °F 80% 29.88 in 10.0 mi WNW 28.8 mph 36.8 mph N/A Snow Light Snow
9:35 AM 24.8 °F 8.4 °F 17.6 °F 74% 29.88 in 10.0 mi NW 27.6 mph 35.7 mph N/A Snow Light Snow
9:55 AM 24.8 °F 9.0 °F 19.4 °F 80% 29.90 in 10.0 mi NW 25.3 mph 32.2 mph N/A Snow Light Snow
10:15 AM 24.8 °F 9.6 °F 19.4 °F 80% 29.90 in 10.0 mi WNW 23.0 mph 32.2 mph N/A Snow Light Snow
10:35 AM 24.8 °F 9.0 °F 19.4 °F 80% 29.91 in 10.0 mi WNW 25.3 mph 36.8 mph N/A Snow Light Snow
10:55 AM 24.8 °F 8.4 °F 19.4 °F 80% 29.92 in 9.0 mi NW 27.6 mph 38.0 mph N/A Snow Light Snow
11:15 AM 26.6 °F 10.3 °F 17.6 °F 69% 29.93 in 10.0 mi NW 29.9 mph 40.3 mph N/A Snow Light Snow
11:35 AM 26.6 °F 11.7 °F 19.4 °F 74% 29.94 in 10.0 mi WNW 24.2 mph 34.5 mph N/A Snow Light Snow
11:55 AM 26.6 °F 13.1 °F 19.4 °F 74% 29.94 in 10.0 mi NW 19.6 mph 33.4 mph N/A Snow Light Snow
12:15 PM 26.6 °F 12.7 °F 19.4 °F 74% 29.95 in 10.0 mi NW 20.7 mph 34.5 mph N/A Snow Light Snow
12:35 PM 26.6 °F 12.0 °F 19.4 °F 74% 29.95 in 10.0 mi NW 23.0 mph 33.4 mph N/A Snow Light Snow
12:55 PM 26.6 °F 11.7 °F 19.4 °F 74% 29.96 in 10.0 mi WNW 24.2 mph 36.8 mph N/A Snow Light Snow
1:15 PM 26.6 °F 12.7 °F 19.4 °F 74% 29.97 in 10.0 mi NW 20.7 mph 29.9 mph N/A Snow Light Snow
1:35 PM 26.6 °F 12.4 °F 19.4 °F 74% 29.97 in 10.0 mi NW 21.9 mph 28.8 mph N/A Snow Light Snow
1:55 PM 26.6 °F 12.4 °F 19.4 °F 74% 29.97 in 9.0 mi NW 21.9 mph 31.1 mph N/A Snow Light Snow
2:15 PM 26.6 °F 12.0 °F 19.4 °F 74% 29.98 in 10.0 mi NW 23.0 mph 34.5 mph N/A Snow Light Snow
2:35 PM 24.8 °F 8.7 °F 19.4 °F 80% 29.98 in 10.0 mi NW 26.5 mph 32.2 mph N/A Snow Light Snow
2:55 PM 24.8 °F 9.0 °F 17.6 °F 74% 29.99 in 10.0 mi NW 25.3 mph 33.4 mph N/A Snow Light Snow
3:15 PM 24.8 °F 10.7 °F 19.4 °F 80% 29.99 in 10.0 mi NW 19.6 mph 28.8 mph N/A Snow Light Snow
3:35 PM 24.8 °F 11.5 °F 19.4 °F 80% 30.00 in 10.0 mi NW 17.3 mph 25.3 mph N/A Snow Light Snow
3:55 PM 24.8 °F 10.3 °F 17.6 °F 74% 30.01 in 10.0 mi NW 20.7 mph 29.9 mph N/A Snow Light Snow
4:55 PM 24.8 °F 12.4 °F 17.6 °F 74% 30.02 in 10.0 mi NW 15.0 mph 24.2 mph N/A Snow Light Snow
5:15 PM 24.8 °F 10.3 °F 17.6 °F 74% 30.03 in 10.0 mi NW 20.7 mph - N/A Snow Light Snow
5:35 PM 24.8 °F 12.9 °F 17.6 °F 74% 30.03 in 10.0 mi WNW 13.8 mph 21.9 mph N/A   Overcast
5:55 PM 23.0 °F 8.3 °F 17.6 °F 80% 30.04 in 10.0 mi NW 19.6 mph - N/A   Overcast
6:15 PM 23.0 °F 8.7 °F 17.6 °F 80% 30.04 in 10.0 mi NW 18.4 mph 25.3 mph N/A   Overcast
6:35 PM 23.0 °F 9.2 °F 17.6 °F 80% 30.05 in 10.0 mi NW 17.3 mph 23.0 mph N/A   Overcast
6:55 PM 23.0 °F 10.6 °F 17.6 °F 80% 30.05 in 10.0 mi NW 13.8 mph 21.9 mph N/A   Overcast
7:15 PM 23.0 °F 10.1 °F 17.6 °F 80% 30.05 in 10.0 mi NW 15.0 mph - N/A   Overcast
7:35 PM 23.0 °F 12.4 °F 17.6 °F 80% 30.05 in 10.0 mi WNW 10.4 mph 19.6 mph N/A   Overcast
7:55 PM 24.8 °F 11.9 °F 17.6 °F 74% 30.05 in 10.0 mi WNW 16.1 mph - N/A   Overcast
8:15 PM 23.0 °F 10.1 °F 17.6 °F 80% 30.05 in 10.0 mi WNW 15.0 mph - N/A   Overcast
8:35 PM 23.0 °F 9.6 °F 17.6 °F 80% 30.06 in 10.0 mi WNW 16.1 mph - N/A   Overcast
8:55 PM 21.2 °F 6.0 °F 15.8 °F 80% 30.06 in 10.0 mi WNW 19.6 mph - N/A   Scattered Clouds
9:15 PM 21.2 °F 7.3 °F 17.6 °F 86% 30.06 in 10.0 mi WNW 16.1 mph - N/A   Mostly Cloudy
9:35 PM 21.2 °F 8.9 °F 17.6 °F 86% 30.06 in 10.0 mi WNW 12.7 mph - N/A   Overcast
9:55 PM 21.2 °F 8.9 °F 15.8 °F 80% 30.07 in 10.0 mi WNW 12.7 mph - N/A   Overcast
10:15 PM 21.2 °F 9.5 °F 15.8 °F 80% 30.07 in - WNW 11.5 mph - N/A   Overcast
10:35 PM 19.4 °F 7.2 °F 15.8 °F 86% 30.06 in 10.0 mi WNW 11.5 mph - N/A   Mostly Cloudy
10:55 PM 21.2 °F 10.1 °F 15.8 °F 80% 30.07 in 10.0 mi WNW 10.4 mph - N/A   Overcast
11:15 PM 21.2 °F 9.5 °F 15.8 °F 80% 30.07 in 10.0 mi NW 11.5 mph - N/A   Overcast
11:35 PM 21.2 °F 9.5 °F 15.8 °F 80% 30.07 in 10.0 mi NW 11.5 mph - N/A   Overcast
11:55 PM 21.2 °F 11.7 °F 15.8 °F 80% 30.08 in 10.0 mi WNW 8.1 mph - N/A   Overcast